EN

Hourly Weather Cucaita

Today, 23 November, Monday

Time Temperature Precipitation Wind Pressure Humidity
00:00 +10°C° 0 mm 0 mps 550 mmHg 95%
01:00 +9°C° 0 mm 0 mps 550 mmHg 95%
02:00 +9°C° 0 mm 0 mps 549 mmHg 94%
03:00 +9°C° 0 mm 1 mps 549 mmHg 94%
04:00 +9°C° 0 mm 1 mps 549 mmHg 93%
05:00 +10°C° 0 mm 1 mps 550 mmHg 91%
06:00 +11°C° 0 mm 1 mps 550 mmHg 88%
07:00 +12°C° 0 mm 1 mps 551 mmHg 86%
08:00 +14°C° 0 mm 1 mps 553 mmHg 76%
09:00 +18°C° 0 mm 1 mps 554 mmHg 66%
10:00 +20°C° 0 mm 1 mps 556 mmHg 57%
11:00 +20°C° 0.1 mm 1 mps 555 mmHg 58%
12:00 +21°C° 0.1 mm 1 mps 554 mmHg 58%
13:00 +21°C° 0.1 mm 1 mps 554 mmHg 59%
14:00 +20°C° 0.5 mm 1 mps 553 mmHg 67%
15:00 +19°C° 0.5 mm 1 mps 552 mmHg 75%
16:00 +18°C° 0.5 mm 1 mps 551 mmHg 83%
17:00 +15°C° 0.5 mm 1 mps 550 mmHg 88%
18:00 +14°C° 0.5 mm 1 mps 550 mmHg 92%
19:00 +12°C° 0.5 mm 1 mps 550 mmHg 97%
20:00 +12°C° 0.2 mm 1 mps 550 mmHg 97%
21:00 +11°C° 0.2 mm 1 mps 550 mmHg 97%
22:00 +11°C° 0.2 mm 1 mps 550 mmHg 96%
23:00 +11°C° 0.1 mm 1 mps 550 mmHg 96%

Tomorrow, 24 November, Tuesday

Time Temperature Precipitation Wind Pressure Humidity
00:00 +10°C° 0.1 mm 1 mps 549 mmHg 96%
01:00 +9°C° 0.1 mm 0 mps 549 mmHg 96%
02:00 +8°C° 0 mm 0 mps 549 mmHg 95%
03:00 +8°C° 0 mm 0 mps 548 mmHg 95%
04:00 +8°C° 0 mm 0 mps 548 mmHg 94%
05:00 +9°C° 0 mm 0 mps 549 mmHg 92%
06:00 +10°C° 0 mm 0 mps 550 mmHg 90%
07:00 +12°C° 0 mm 1 mps 551 mmHg 88%
08:00 +15°C° 0 mm 1 mps 553 mmHg 78%
09:00 +18°C° 0 mm 1 mps 554 mmHg 68%
10:00 +21°C° 0 mm 1 mps 556 mmHg 58%
11:00 +21°C° 0.4 mm 1 mps 555 mmHg 61%
12:00 +20°C° 0.4 mm 1 mps 554 mmHg 65%
13:00 +20°C° 0.4 mm 1 mps 553 mmHg 68%
14:00 +19°C° 1.4 mm 1 mps 552 mmHg 75%
15:00 +18°C° 1.4 mm 1 mps 552 mmHg 81%
16:00 +16°C° 1.4 mm 1 mps 551 mmHg 88%
17:00 +15°C° 1.3 mm 1 mps 551 mmHg 90%
18:00 +14°C° 1.3 mm 1 mps 551 mmHg 93%
19:00 +13°C° 1.3 mm 1 mps 550 mmHg 96%
20:00 +13°C° 1.1 mm 1 mps 551 mmHg 97%
21:00 +13°C° 1.1 mm 1 mps 551 mmHg 97%
22:00 +13°C° 1.1 mm 1 mps 552 mmHg 98%
23:00 +12°C° 1.9 mm 1 mps 551 mmHg 98%

Day after tomorrow, 25 November, Wednesday

Time Temperature Precipitation Wind Pressure Humidity
00:00 +11°C° 1.9 mm 0 mps 551 mmHg 98%
01:00 +11°C° 1.9 mm 0 mps 550 mmHg 97%
02:00 +10°C° 0.1 mm 0 mps 550 mmHg 97%
03:00 +10°C° 0.1 mm 0 mps 550 mmHg 97%
04:00 +10°C° 0.1 mm 1 mps 549 mmHg 96%
05:00 +11°C° 0 mm 1 mps 550 mmHg 95%
06:00 +12°C° 0 mm 1 mps 551 mmHg 94%
07:00 +12°C° 0 mm 1 mps 551 mmHg 93%
08:00 +14°C° 0.1 mm 1 mps 552 mmHg 85%
09:00 +16°C° 0.1 mm 1 mps 554 mmHg 77%
10:00 +19°C° 0.1 mm 1 mps 555 mmHg 69%
11:00 +19°C° 0.7 mm 1 mps 554 mmHg 72%
12:00 +19°C° 0.7 mm 1 mps 553 mmHg 75%
13:00 +19°C° 0.7 mm 1 mps 552 mmHg 77%
14:00 +18°C° 1.4 mm 1 mps 552 mmHg 81%
15:00 +16°C° 1.4 mm 1 mps 551 mmHg 85%
16:00 +16°C° 1.4 mm 1 mps 550 mmHg 89%
17:00 +14°C° 0.9 mm 0 mps 550 mmHg 92%
18:00 +13°C° 0.9 mm 0 mps 550 mmHg 94%
19:00 +12°C° 0.9 mm 0 mps 550 mmHg 96%
20:00 +12°C° 1.7 mm 0 mps 550 mmHg 97%
21:00 +12°C° 1.7 mm 0 mps 551 mmHg 97%
22:00 +11°C° 1.7 mm 0 mps 551 mmHg 98%
23:00 +11°C° 1.6 mm 0 mps 551 mmHg 97%

26 November, Thursday

Time Temperature Precipitation Wind Pressure Humidity
00:00 +11°C° 1.6 mm 0 mps 550 mmHg 97%
01:00 +11°C° 1.6 mm 0 mps 550 mmHg 97%
02:00 +11°C° 0.1 mm 0 mps 550 mmHg 96%
03:00 +10°C° 0.1 mm 0 mps 550 mmHg 95%
04:00 +10°C° 0.1 mm 0 mps 549 mmHg 94%
05:00 +11°C° 0 mm 0 mps 550 mmHg 93%
06:00 +11°C° 0 mm 0 mps 551 mmHg 92%
07:00 +11°C° 0 mm 0 mps 551 mmHg 91%
08:00 +13°C° 0 mm 0 mps 552 mmHg 82%
09:00 +16°C° 0 mm 1 mps 554 mmHg 74%
10:00 +19°C° 0 mm 1 mps 555 mmHg 66%
11:00 +19°C° 0.6 mm 1 mps 554 mmHg 71%
12:00 +19°C° 0.6 mm 1 mps 553 mmHg 76%
13:00 +18°C° 0.6 mm 1 mps 552 mmHg 81%
14:00 +16°C° 1.2 mm 1 mps 551 mmHg 85%
15:00 +16°C° 1.2 mm 1 mps 551 mmHg 88%
16:00 +15°C° 1.2 mm 1 mps 550 mmHg 91%
17:00 +13°C° 0.6 mm 0 mps 550 mmHg 93%
18:00 +12°C° 0.6 mm 0 mps 550 mmHg 96%
19:00 +11°C° 0.6 mm 0 mps 549 mmHg 98%
20:00 +11°C° 0.3 mm 0 mps 550 mmHg 97%
21:00 +11°C° 0.3 mm 0 mps 550 mmHg 97%
22:00 +11°C° 0.3 mm 0 mps 550 mmHg 96%
23:00 +10°C° 0.1 mm 0 mps 550 mmHg 96%

27 November, Friday

Time Temperature Precipitation Wind Pressure Humidity
00:00 +10°C° 0.1 mm 0 mps 549 mmHg 96%
01:00 +9°C° 0.1 mm 0 mps 549 mmHg 96%
02:00 +9°C° 0 mm 0 mps 549 mmHg 96%
03:00 +9°C° 0 mm 0 mps 548 mmHg 96%
04:00 +9°C° 0 mm 0 mps 548 mmHg 96%
05:00 +9°C° 0 mm 0 mps 549 mmHg 95%
06:00 +10°C° 0 mm 0 mps 550 mmHg 94%
07:00 +11°C° 0 mm 0 mps 551 mmHg 93%
08:00 +13°C° 0.2 mm 0 mps 552 mmHg 87%
09:00 +16°C° 0.2 mm 1 mps 553 mmHg 80%
10:00 +19°C° 0.2 mm 1 mps 554 mmHg 73%
11:00 +18°C° 1.2 mm 1 mps 553 mmHg 78%
12:00 +18°C° 1.2 mm 1 mps 552 mmHg 82%
13:00 +16°C° 1.2 mm 1 mps 551 mmHg 86%
14:00 +16°C° 1.5 mm 1 mps 551 mmHg 88%
15:00 +15°C° 1.5 mm 1 mps 550 mmHg 90%
16:00 +15°C° 1.5 mm 1 mps 549 mmHg 93%
17:00 +14°C° 1.1 mm 1 mps 549 mmHg 94%
18:00 +12°C° 1.1 mm 0 mps 550 mmHg 96%
19:00 +12°C° 1.1 mm 0 mps 550 mmHg 98%
20:00 +11°C° 4 mm 0 mps 550 mmHg 98%
21:00 +12°C° 4 mm 1 mps 550 mmHg 98%
22:00 +12°C° 4 mm 1 mps 550 mmHg 97%
23:00 +12°C° 2.3 mm 1 mps 550 mmHg 97%

28 November, Saturday

Time Temperature Precipitation Wind Pressure Humidity
00:00 +11°C° 2.3 mm 1 mps 550 mmHg 97%
01:00 +11°C° 2.3 mm 1 mps 549 mmHg 96%
02:00 +9°C° 0.1 mm 0 mps 549 mmHg 96%
03:00 +9°C° 0.1 mm 0 mps 549 mmHg 96%
04:00 +9°C° 0.1 mm 0 mps 548 mmHg 95%
05:00 +9°C° 0 mm 0 mps 549 mmHg 95%
06:00 +10°C° 0 mm 0 mps 550 mmHg 94%
07:00 +10°C° 0 mm 0 mps 550 mmHg 93%
08:00 +12°C° 0.1 mm 0 mps 552 mmHg 86%
09:00 +14°C° 0.1 mm 0 mps 553 mmHg 78%
10:00 +18°C° 0.1 mm 1 mps 554 mmHg 71%
11:00 +18°C° 0.5 mm 1 mps 553 mmHg 73%
12:00 +19°C° 0.5 mm 1 mps 553 mmHg 75%
13:00 +19°C° 0.5 mm 1 mps 552 mmHg 76%
14:00 +18°C° 1.3 mm 1 mps 552 mmHg 81%
15:00 +16°C° 1.3 mm 1 mps 551 mmHg 85%
16:00 +16°C° 1.3 mm 1 mps 550 mmHg 89%
17:00 +14°C° 1 mm 0 mps 550 mmHg 92%
18:00 +13°C° 1 mm 0 mps 550 mmHg 95%
19:00 +12°C° 1 mm 0 mps 550 mmHg 98%
20:00 +11°C° 1.4 mm 0 mps 550 mmHg 98%
21:00 +11°C° 1.4 mm 0 mps 551 mmHg 98%
22:00 +11°C° 1.4 mm 0 mps 551 mmHg 97%
23:00 +11°C° 2 mm 0 mps 551 mmHg 97%
Show more

We Need Your Consent

Meteoprog and our Service Providers may store and access personal data such as cookies, device identifiers or other similar technologies on your device and process such data to personalise content and ads, as well as provide social media features and to analyse the traffic.

  • Store and/or access information on your device

    Cookies, device identifiers or other information can be stored or accessed on your device for the purposes indicated above.

  • Personalised ads and content, ad and content measurement, audience insights, and products development

    Ads and content can be personalised based on a profile. More data can be added to better personalise ads and content. Ad and content performance can be measured. Insights about the audience who saw the ads and content can be derived. Such data can be used to develop or improve user’s experience, systems and software.

By clicking ‘I Agree’ you will allow the use of indicated cookies, device identifiers, web beacons or other similar technologies. Your settings can be changed in the browser on your device.

For certain purposes, legitimate interests may be relied on, rather than consent. You can read more about this in our Privacy and Cookie Policy.